This demonstration page uses our WeatherBlox Daily Observations layout. Learn more.

Left ArrowRight Arrow

31.84235, -102.49876

Hourly Observations for May 4, 2022

Temp ( °F °C ) Dew Point ( °F °C ) Humidity (%) Winds ( mph kmh ) Pressure ( in mb ) Visibility ( mi km ) Precip ( " mm )
12:39 am 00:39 Mostly Cloudy 75 23.9 66 18.9 74 74 S 17 28 29.72 1006 8 13 0.00 0.00
12:53 am 00:53 Cloudy 75 23.9 66 18.9 74 74 S 22 35 29.76 1008 8 13 0.00 0.00
1:53 am 01:53 Partly Cloudy 73 22.8 66 18.9 79 79 S 14 22 29.74 1007 7 11 0.00 0.00
2:31 am 02:31 Mostly Cloudy with Haze 73 22.8 66 18.9 79 79 S 13 20 29.71 1006 6 10 0.00 0.00
2:50 am 02:50 Partly Cloudy 73 23 66 19 78 78 S 14 22 29.70 1006 7 11 0.00 0.00
2:53 am 02:53 Partly Cloudy 73 22.8 66 18.9 79 79 S 13 20 29.72 1006 7 11 0.00 0.00
3:22 am 03:22 Mostly Cloudy 73 22.8 66 18.9 79 79 S 10 17 29.69 1005 7 11 0.00 0.00
3:53 am 03:53 Cloudy 73 22.8 66 18.9 79 79 S 9 15 29.70 1006 7 11 0.00 0.00
4:53 am 04:53 Cloudy 73 22.8 65 18.3 76 76 S 14 22 29.70 1006 8 13 0.00 0.00
5:44 am 05:44 Partly Cloudy 72 22.2 65 18.3 79 79 S 12 19 29.70 1006 8 13 0.00 0.00
5:53 am 05:53 Partly Cloudy 72 22.2 65 18.3 79 79 S 12 19 29.70 1006 8 13 0.00 0.00
6:22 am 06:22 Mostly Cloudy 71 21.7 65 18.3 81 81 S 12 19 29.70 1006 8 13 0.00 0.00
6:53 am 06:53 Cloudy 71 21.7 65 18.3 81 81 S 14 22 29.71 1006 8 13 0.00 0.00
7:50 am 07:50 Hazy 72 22 64 18 78 78 S 12 19 29.73 1007 6 10 0.00 0.00
7:53 am 07:53 Hazy 71 21.7 65 18.3 81 81 S 13 20 29.73 1007 6 10 0.00 0.00
8:53 am 08:53 Hazy 72 22.2 66 18.9 82 82 S 18 30 29.74 1007 6 10 0.00 0.00
9:53 am 09:53 Hazy 74 23.3 66 18.9 76 76 S 16 26 29.75 1007 6 10 0.00 0.00
10:53 am 10:53 Sunny 79 26.1 62 16.7 56 56 SW 16 26 29.74 1007 8 13 0.00 0.00
11:53 am 11:53 Sunny 83 28.3 53 11.7 36 36 SW 14 22 29.72 1007 10 16 0.00 0.00
12:53 pm 12:53 Sunny 86 30 47 8.3 26 26 WSW 12 19 29.71 1006 10 16 0.00 0.00
1:53 pm 13:53 Sunny 88 31.1 52 11.1 29 29 SSW 9 15 29.68 1005 10 16 0.00 0.00
2:53 pm 14:53 Sunny 89 31.7 38 3.3 16 16 SSW 12 19 29.67 1005 10 16 0.00 0.00
3:53 pm 15:53 Sunny 91 32.8 22 -5.6 8 8 SSW 13 20 29.65 1004 10 16 0.00 0.00
4:53 pm 16:53 Sunny 89 31.7 20 -6.7 8 8 SW 9 15 29.63 1003 10 16 0.00 0.00
5:53 pm 17:53 Sunny 90 32.2 17 -8.3 7 7 WSW 13 20 29.63 1004 10 16 0.00 0.00
6:53 pm 18:53 Sunny 90 32.2 17 -8.3 7 7 SW 10 17 29.63 1003 10 16 0.00 0.00
7:53 pm 19:53 Sunny 85 29.4 18 -7.8 8 8 S 8 13 29.63 1004 10 16 0.00 0.00
8:53 pm 20:53 Clear 81 27.2 51 10.6 35 35 S 9 15 29.67 1005 10 16 0.00 0.00
9:53 pm 21:53 Clear 79 26.1 62 16.7 56 56 S 13 20 29.69 1005 10 16 0.00 0.00
10:53 pm 22:53 Hazy 76 24.4 66 18.9 72 72 S 14 22 29.70 1006 6 10 0.00 0.00
11:53 pm 23:53 Hazy 74 23.3 64 17.8 71 71 SSW 15 24 29.70 1006 6 10 0.00 0.00

Powered by AerisWeather